| time (UTC) | temp F | wind direction | speed MPH | gust MPH | rain 1hr in | rain 24hr in | rain mn in | humidity % | barometer mb |
| 20260905140521 | 61 | 349 | 5.0 | 14.0 | 0.00 | 2.16 | 0.06 | 90 | 999.5 |
| 20260905140020 | 60 | 326 | 6.0 | 14.0 | 0.00 | 2.16 | 0.06 | 89 | 999.5 |
| 20260905135528 | 60 | 24 | 5.0 | 13.0 | 0.00 | 2.37 | 0.06 | 90 | 999.6 |
| 20260905135040 | 60 | 338 | 5.0 | 13.0 | 0.00 | 2.37 | 0.06 | 90 | 999.5 |
| 20260905134523 | 60 | 6 | 6.0 | 15.0 | 0.00 | 2.37 | 0.06 | 90 | 999.5 |
| 20260905134021 | 60 | 323 | 6.0 | 15.0 | 0.00 | 2.37 | 0.06 | 90 | 999.4 |
| 20260905133519 | 60 | 20 | 6.0 | 12.0 | 0.00 | 2.37 | 0.06 | 90 | 999.4 |
| 20260905133018 | 60 | 340 | 7.0 | 13.0 | 0.00 | 2.37 | 0.06 | 89 | 999.3 |
| 20260905132536 | 60 | 25 | 7.0 | 18.0 | 0.00 | 2.37 | 0.06 | 89 | 999.3 |
| 20260905132024 | 60 | 1 | 9.0 | 18.0 | 0.00 | 2.37 | 0.06 | 89 | 999.3 |
| 20260905131522 | 60 | 293 | 6.0 | 12.0 | 0.00 | 2.37 | 0.06 | 89 | 999.3 |
| 20260905131023 | 60 | 15 | 6.0 | 16.0 | 0.00 | 2.37 | 0.06 | 90 | 999.2 |
| 20260905130519 | 60 | 29 | 5.0 | 13.0 | 0.00 | 2.37 | 0.06 | 90 | 999.3 |
| 20260905130017 | 60 | 348 | 5.0 | 14.0 | 0.00 | 2.37 | 0.06 | 91 | 999.3 |
| 20260905125525 | 60 | 328 | 4.0 | 14.0 | 0.00 | 2.63 | 0.06 | 90 | 999.4 |
| 20260905125024 | 60 | 327 | 5.0 | 12.0 | 0.00 | 2.63 | 0.06 | 91 | 999.4 |
| 20260905124522 | 60 | 335 | 3.0 | 12.0 | 0.00 | 2.63 | 0.06 | 91 | 999.2 |
| 20260905124024 | 60 | 329 | 5.0 | 12.0 | 0.00 | 2.63 | 0.06 | 91 | 999.2 |
| 20260905123517 | 60 | 16 | 4.0 | 12.0 | 0.00 | 2.63 | 0.06 | 92 | 999.4 |
| 20260905123024 | 60 | 321 | 5.0 | 11.0 | 0.00 | 2.63 | 0.06 | 92 | 999.3 |
| 20260905122524 | 60 | 58 | 4.0 | 15.0 | 0.00 | 2.63 | 0.06 | 93 | 999.3 |
| 20260905122021 | 60 | 356 | 5.0 | 15.0 | 0.00 | 2.63 | 0.06 | 93 | 999.2 |
| 20260905121520 | 60 | 22 | 4.0 | 15.0 | 0.00 | 2.63 | 0.06 | 94 | 999.3 |
| 20260905121017 | 60 | 297 | 6.0 | 14.0 | 0.01 | 2.63 | 0.06 | 94 | 999.2 |
| 20260905120525 | 60 | 68 | 6.0 | 13.0 | 0.01 | 2.63 | 0.06 | 94 | 999.4 |
| 20260905120024 | 60 | 9 | 8.0 | 15.0 | 0.02 | 2.63 | 0.06 | 94 | 999.4 |
| 20260905115521 | 59 | 58 | 7.0 | 14.0 | 0.02 | 3.13 | 0.06 | 95 | 999.3 |
| 20260905115030 | 59 | 321 | 6.0 | 13.0 | 0.03 | 3.13 | 0.06 | 95 | 999.2 |
| 20260905114518 | 59 | 333 | 5.0 | 13.0 | 0.04 | 3.13 | 0.06 | 95 | 999.4 |
| 20260905114025 | 59 | 45 | 6.0 | 14.0 | 0.05 | 3.13 | 0.06 | 95 | 999.3 |
| 20260905113535 | 59 | 14 | 8.0 | 14.0 | 0.05 | 3.13 | 0.06 | 95 | 999.4 |
| 20260905113022 | 60 | 48 | 7.0 | 17.0 | 0.05 | 3.13 | 0.06 | 95 | 999.4 |
| 20260905112521 | 60 | 110 | 9.0 | 15.0 | 0.05 | 3.13 | 0.06 | 95 | 999.1 |
| 20260905112019 | 60 | 49 | 7.0 | 16.0 | 0.05 | 3.13 | 0.06 | 95 | 999.2 |
| 20260905111518 | 60 | 66 | 7.0 | 16.0 | 0.05 | 3.13 | 0.06 | 95 | 999.1 |
| 20260905111019 | 61 | 67 | 8.0 | 16.0 | 0.04 | 3.12 | 0.05 | 95 | 999.0 |
| 20260905110525 | 62 | 25 | 3.0 | 7.0 | 0.04 | 3.12 | 0.05 | 96 | 999.0 |
| 20260905110024 | 62 | 319 | 1.0 | 3.0 | 0.03 | 3.11 | 0.04 | 96 | 998.9 |
| 20260905105524 | 62 | 1 | 1.0 | 3.0 | 0.03 | 3.51 | 0.04 | 96 | 998.9 |
| 20260905105022 | 62 | 4 | 1.0 | 2.0 | 0.02 | 3.50 | 0.03 | 95 | 998.9 |
| 20260905104520 | 62 | 308 | 0.0 | 2.0 | 0.02 | 3.49 | 0.02 | 96 | 998.8 |
| 20260905104017 | 62 | 342 | 0.0 | 0.0 | 0.01 | 3.48 | 0.01 | 96 | 998.8 |
| 20260905103536 | 62 | 302 | 0.0 | 0.0 | 0.01 | 3.48 | 0.01 | 95 | 998.7 |
| 20260905103025 | 62 | 302 | 0.0 | 0.0 | 0.01 | 3.48 | 0.01 | 96 | 998.8 |
| 20260905102524 | 62 | 302 | 0.0 | 0.0 | 0.01 | 3.48 | 0.01 | 95 | 998.8 |
| 20260905102024 | 62 | 302 | 0.0 | 0.0 | 0.01 | 3.48 | 0.01 | 95 | 998.8 |
| 20260905101523 | 62 | 302 | 0.0 | 0.0 | 0.01 | 3.48 | 0.01 | 95 | 998.8 |
| 20260905101022 | 62 | 302 | 0.0 | 0.0 | 0.01 | 3.48 | 0.01 | 95 | 998.8 |
| 20260905100520 | 62 | 302 | 0.0 | 0.0 | 0.01 | 3.48 | 0.01 | 95 | 998.8 |
| 20260905100029 | 62 | 302 | 0.0 | 0.0 | 0.01 | 3.48 | 0.01 | 95 | 998.8 |
| 20260905095526 | 61 | 302 | 0.0 | 0.0 | 0.01 | 3.80 | 0.01 | 95 | 998.9 |
| 20260905095025 | 61 | 300 | 0.0 | 1.0 | 0.01 | 3.80 | 0.01 | 95 | 998.8 |
| 20260905094524 | 61 | 300 | 0.0 | 1.0 | 0.00 | 3.79 | 0.00 | 95 | 998.9 |
| 20260905094022 | 61 | 288 | 0.0 | 2.0 | 0.00 | 3.79 | 0.00 | 95 | 998.9 |
| 20260905093520 | 61 | 288 | 1.0 | 2.0 | 0.00 | 3.79 | 0.00 | 95 | 999.0 |
| 20260905093028 | 61 | 300 | 1.0 | 4.0 | 0.00 | 3.79 | 0.00 | 95 | 998.9 |
| 20260905092525 | 61 | 310 | 2.0 | 4.0 | 0.00 | 3.79 | 0.00 | 95 | 998.9 |
| 20260905092024 | 61 | 316 | 3.0 | 4.0 | 0.00 | 3.79 | 0.00 | 95 | 998.9 |
| 20260905091534 | 61 | 340 | 2.0 | 3.0 | 0.00 | 3.79 | 0.00 | 95 | 998.9 |
| 20260905091022 | 61 | 298 | 2.0 | 4.0 | 0.00 | 3.79 | 0.00 | 95 | 998.9 |
| 20260905090520 | 61 | 320 | 2.0 | 4.0 | 0.00 | 3.79 | 0.00 | 95 | 998.9 |
| 20260905090018 | 61 | 315 | 1.0 | 2.0 | 0.00 | 3.79 | 0.00 | 95 | 998.9 |
| 20260905085525 | 61 | 354 | 1.0 | 2.0 | 0.00 | 3.84 | 0.00 | 95 | 998.8 |
| 20260905085029 | 61 | 348 | 0.0 | 2.0 | 0.00 | 3.84 | 0.00 | 95 | 998.9 |
| 20260905084524 | 61 | 323 | 1.0 | 2.0 | 0.00 | 3.84 | 0.00 | 95 | 999.0 |
| 20260905084023 | 61 | 295 | 0.0 | 0.0 | 0.00 | 3.84 | 0.00 | 95 | 999.0 |
| 20260905083522 | 61 | 295 | 0.0 | 0.0 | 0.00 | 3.84 | 0.00 | 95 | 999.0 |
| 20260905083020 | 61 | 295 | 0.0 | 0.0 | 0.00 | 3.84 | 0.00 | 95 | 999.0 |
| 20260905082517 | 61 | 295 | 0.0 | 0.0 | 0.00 | 3.84 | 0.00 | 95 | 999.0 |
| 20260905082025 | 61 | 295 | 0.0 | 0.0 | 0.00 | 3.84 | 0.00 | 95 | 999.0 |
| 20260905081524 | 61 | 295 | 0.0 | 0.0 | 0.00 | 3.84 | 0.00 | 95 | 998.9 |
| 20260905081024 | 61 | 295 | 0.0 | 0.0 | 0.00 | 3.84 | 0.00 | 95 | 999.0 |
| 20260905080523 | 61 | 295 | 0.0 | 0.0 | 0.00 | 3.84 | 0.00 | 95 | 999.1 |
| 20260905080020 | 62 | 295 | 0.0 | 1.0 | 0.00 | 3.84 | 0.00 | 95 | 999.0 |
| 20260905075518 | 62 | 295 | 0.0 | 2.0 | 0.00 | 3.84 | 0.00 | 95 | 999.1 |
| 20260905075025 | 62 | 294 | 1.0 | 2.0 | 0.00 | 3.84 | 0.00 | 95 | 999.1 |
| 20260905074524 | 62 | 274 | 0.0 | 0.0 | 0.00 | 3.84 | 0.00 | 95 | 999.0 |
| 20260905074024 | 62 | 266 | 0.0 | 0.0 | 0.00 | 3.84 | 0.00 | 95 | 999.2 |
| 20260905073523 | 62 | 266 | 0.0 | 0.0 | 0.00 | 3.84 | 0.00 | 95 | 999.2 |
| 20260905073025 | 62 | 266 | 0.0 | 0.0 | 0.00 | 3.84 | 0.00 | 95 | 999.1 |
| 20260905072517 | 62 | 266 | 0.0 | 0.0 | 0.00 | 3.84 | 0.00 | 95 | 999.0 |
| 20260905072026 | 62 | 267 | 0.0 | 0.0 | 0.00 | 3.84 | 0.00 | 95 | 999.0 |
| 20260905071525 | 62 | 275 | 0.0 | 0.0 | 0.00 | 3.84 | 0.00 | 95 | 999.0 |
| 20260905071023 | 62 | 275 | 0.0 | 0.0 | 0.00 | 3.84 | 0.00 | 95 | 999.1 |
| 20260905070522 | 62 | 224 | 0.0 | 0.0 | 0.00 | 3.84 | 0.00 | 95 | 999.2 |
| 20260905070020 | 62 | 224 | 0.0 | 0.0 | 0.00 | 3.84 | 0.00 | 95 | 999.2 |
| 20260905065529 | 62 | 224 | 0.0 | 0.0 | 0.00 | 3.86 | 0.00 | 95 | 999.2 |
| 20260905065018 | 62 | 224 | 0.0 | 0.0 | 0.00 | 3.86 | 0.00 | 95 | 999.2 |
| 20260905064536 | 62 | 224 | 0.0 | 0.0 | 0.00 | 3.86 | 0.00 | 95 | 999.3 |
| 20260905064025 | 62 | 224 | 0.0 | 0.0 | 0.00 | 3.86 | 0.00 | 95 | 999.3 |
| 20260905063524 | 62 | 224 | 0.0 | 0.0 | 0.00 | 3.86 | 0.00 | 95 | 999.3 |
| 20260905063024 | 62 | 224 | 0.0 | 0.0 | 0.00 | 3.86 | 0.00 | 95 | 999.4 |
| 20260905062522 | 62 | 224 | 0.0 | 0.0 | 0.00 | 3.86 | 0.00 | 95 | 999.4 |
| 20260905062020 | 62 | 224 | 0.0 | 0.0 | 0.00 | 3.86 | 0.00 | 95 | 999.4 |
| 20260905061518 | 62 | 224 | 0.0 | 0.0 | 0.00 | 3.86 | 0.00 | 95 | 999.4 |
| 20260905061018 | 62 | 224 | 0.0 | 0.0 | 0.00 | 3.86 | 0.00 | 95 | 999.5 |
| 20260905060526 | 62 | 222 | 0.0 | 0.0 | 0.00 | 3.86 | 0.00 | 95 | 999.5 |
| 20260905060026 | 62 | 222 | 0.0 | 0.0 | 0.00 | 3.86 | 0.00 | 95 | 999.8 |
| 20260905055523 | 62 | 222 | 0.0 | 0.0 | 0.00 | 3.88 | 0.00 | 95 | 999.7 |
| 20260905055022 | 62 | 223 | 0.0 | 0.0 | 0.00 | 3.88 | 0.00 | 95 | 999.8 |
| 20260905054522 | 62 | 223 | 0.0 | 2.0 | 0.00 | 3.88 | 0.00 | 95 | 999.9 |
| 20260905054023 | 62 | 299 | 0.0 | 3.0 | 0.00 | 3.88 | 0.00 | 95 | 1000.0 |
| 20260905053523 | 62 | 301 | 2.0 | 4.0 | 0.00 | 3.88 | 0.00 | 95 | 1000.0 |
| 20260905053033 | 62 | 319 | 2.0 | 5.0 | 0.00 | 3.88 | 0.00 | 95 | 1000.1 |
| 20260905052533 | 62 | 302 | 2.0 | 5.0 | 0.00 | 3.88 | 0.00 | 95 | 1000.0 |
| 20260905052022 | 62 | 293 | 2.0 | 4.0 | 0.00 | 3.88 | 0.00 | 95 | 1000.0 |
| 20260905051521 | 62 | 307 | 2.0 | 4.0 | 0.00 | 3.88 | 0.00 | 95 | 1000.0 |
| 20260905051020 | 63 | 313 | 2.0 | 5.0 | 0.00 | 3.88 | 0.00 | 95 | 1000.0 |
| 20260905050520 | 63 | 316 | 2.0 | 3.0 | 0.00 | 3.88 | 0.00 | 95 | 1000.0 |
| 20260905050019 | 63 | 280 | 1.0 | 3.0 | 0.00 | 3.88 | 0.00 | 95 | 1000.0 |
| 20260905045518 | 63 | 291 | 0.0 | 2.0 | 0.00 | 3.89 | 0.00 | 95 | 1000.0 |
| 20260905045018 | 63 | 277 | 0.0 | 0.0 | 0.00 | 3.89 | 0.00 | 95 | 1000.1 |
| 20260905044525 | 63 | 258 | 0.0 | 0.0 | 0.00 | 3.89 | 0.00 | 95 | 1000.3 |
| 20260905044036 | 63 | 258 | 0.0 | 0.0 | 0.00 | 3.89 | 0.00 | 96 | 1000.3 |
| 20260905043534 | 63 | 258 | 0.0 | 0.0 | 0.00 | 3.89 | 0.00 | 95 | 1000.4 |
| 20260905043028 | 63 | 258 | 0.0 | 0.0 | 0.00 | 3.89 | 0.00 | 96 | 1000.5 |
| 20260905042523 | 63 | 258 | 0.0 | 0.0 | 0.00 | 3.89 | 0.00 | 96 | 1000.6 |
| 20260905042022 | 63 | 258 | 0.0 | 0.0 | 0.00 | 3.89 | 0.00 | 96 | 1000.6 |
| 20260905041522 | 64 | 258 | 0.0 | 0.0 | 0.00 | 3.89 | 0.00 | 96 | 1000.7 |
| 20260905041034 | 64 | 258 | 0.0 | 0.0 | 0.00 | 3.89 | 0.00 | 96 | 1000.9 |
| 20260905040521 | 64 | 305 | 0.0 | 0.0 | 0.00 | 3.89 | 0.00 | 96 | 1000.9 |
| 20260905040020 | 64 | 305 | 0.0 | 0.0 | 0.00 | 3.89 | 0.00 | 96 | 1001.0 |
| 20260905035532 | 64 | 305 | 0.0 | 0.0 | 0.00 | 3.90 | 0.00 | 96 | 1001.1 |
| 20260905035031 | 64 | 304 | 0.0 | 0.0 | 0.00 | 3.90 | 0.00 | 96 | 1001.2 |
| 20260905034520 | 64 | 305 | 0.0 | 1.0 | 0.00 | 3.90 | 0.00 | 96 | 1001.2 |
| 20260905034021 | 64 | 297 | 0.0 | 2.0 | 0.00 | 3.90 | 0.00 | 96 | 1001.3 |
| 20260905033525 | 64 | 297 | 0.0 | 2.0 | 0.00 | 3.90 | 0.00 | 96 | 1001.3 |
| 20260905033031 | 64 | 255 | 0.0 | 1.0 | 0.00 | 3.90 | 0.00 | 96 | 1001.3 |
| 20260905032520 | 64 | 250 | 0.0 | 0.0 | 0.00 | 3.90 | 0.00 | 96 | 1001.3 |
| 20260905032018 | 64 | 250 | 0.0 | 0.0 | 0.00 | 3.90 | 0.00 | 96 | 1001.3 |
| 20260905031529 | 64 | 117 | 0.0 | 0.0 | 0.00 | 3.90 | 0.00 | 96 | 1001.4 |
| 20260905031018 | 64 | 117 | 0.0 | 0.0 | 0.00 | 3.90 | 0.00 | 96 | 1001.5 |
| 20260905030518 | 64 | 117 | 0.0 | 0.0 | 0.00 | 3.90 | 0.00 | 96 | 1001.4 |
| 20260905030019 | 63 | 117 | 0.0 | 0.0 | 0.00 | 3.90 | 0.00 | 96 | 1001.5 |
| 20260905025518 | 63 | 117 | 0.0 | 0.0 | 0.00 | 3.90 | 3.90 | 96 | 1001.5 |
| 20260905025019 | 64 | 117 | 0.0 | 0.0 | 0.00 | 3.90 | 3.90 | 96 | 1001.5 |
| 20260905024518 | 63 | 117 | 0.0 | 0.0 | 0.00 | 3.90 | 3.90 | 96 | 1001.5 |
| 20260905024018 | 63 | 117 | 0.0 | 0.0 | 0.00 | 3.90 | 3.90 | 96 | 1001.5 |
| 20260905023518 | 63 | 117 | 0.0 | 0.0 | 0.00 | 3.90 | 3.90 | 96 | 1001.4 |
| 20260905023019 | 63 | 340 | 0.0 | 0.0 | 0.00 | 3.90 | 3.90 | 96 | 1001.5 |
| 20260905022518 | 63 | 340 | 0.0 | 1.0 | 0.00 | 3.90 | 3.90 | 96 | 1001.5 |
| 20260905022025 | 63 | 340 | 0.0 | 2.0 | 0.00 | 3.90 | 3.90 | 96 | 1001.6 |
| 20260905021525 | 63 | 348 | 0.0 | 3.0 | 0.00 | 3.90 | 3.90 | 96 | 1001.6 |
| 20260905021036 | 63 | 311 | 0.0 | 3.0 | 0.00 | 3.90 | 3.90 | 96 | 1001.6 |
| 20260905020523 | 63 | 271 | 1.0 | 3.0 | 0.00 | 3.90 | 3.90 | 96 | 1001.5 |
| 20260905020023 | 64 | 304 | 0.0 | 3.0 | 0.00 | 3.90 | 3.90 | 96 | 1001.6 |
| 20260905015522 | 64 | 281 | 0.0 | 2.0 | 0.00 | 3.90 | 3.90 | 96 | 1001.8 |
| 20260905015035 | 64 | 335 | 1.0 | 3.0 | 0.00 | 3.90 | 3.90 | 96 | 1001.8 |
| 20260905014523 | 64 | 298 | 0.0 | 3.0 | 0.00 | 3.90 | 3.90 | 96 | 1001.9 |
| 20260905014034 | 63 | 311 | 1.0 | 3.0 | 0.00 | 3.90 | 3.90 | 96 | 1002.0 |
| 20260905013523 | 63 | 240 | 0.0 | 1.0 | 0.00 | 3.90 | 3.90 | 95 | 1002.1 |
| 20260905013022 | 63 | 240 | 0.0 | 1.0 | 0.00 | 3.90 | 3.90 | 95 | 1002.1 |
| 20260905012523 | 63 | 240 | 0.0 | 1.0 | 0.00 | 3.90 | 3.90 | 95 | 1002.2 |
| 20260905012024 | 64 | 240 | 0.0 | 1.0 | 0.00 | 3.90 | 3.90 | 95 | 1002.5 |
| 20260905011522 | 64 | 240 | 0.0 | 1.0 | 0.00 | 3.90 | 3.90 | 95 | 1002.6 |
| 20260905011020 | 64 | 240 | 0.0 | 1.0 | 0.00 | 3.90 | 3.90 | 96 | 1002.8 |
| 20260905010521 | 64 | 240 | 0.0 | 1.0 | 0.00 | 3.90 | 3.90 | 96 | 1002.9 |
| 20260905010020 | 64 | 240 | 0.0 | 1.0 | 0.00 | 3.90 | 3.90 | 96 | 1003.0 |
| 20260905005520 | 64 | 240 | 0.0 | 0.0 | 0.00 | 3.90 | 3.90 | 96 | 1003.1 |
| 20260905005022 | 64 | 240 | 0.0 | 1.0 | 0.00 | 3.90 | 3.90 | 96 | 1003.2 |
| 20260905004521 | 64 | 240 | 0.0 | 1.0 | 0.00 | 3.90 | 3.90 | 95 | 1003.2 |
| 20260905004020 | 64 | 240 | 0.0 | 1.0 | 0.00 | 3.90 | 3.90 | 95 | 1003.5 |
| 20260905003521 | 64 | 240 | 0.0 | 1.0 | 0.00 | 3.90 | 3.90 | 95 | 1003.4 |
| 20260905003026 | 64 | 240 | 0.0 | 0.0 | 0.00 | 3.90 | 3.90 | 95 | 1003.4 |
| 20260905002521 | 64 | 240 | 0.0 | 0.0 | 0.00 | 3.90 | 3.90 | 95 | 1003.6 |
| 20260905002033 | 64 | 240 | 0.0 | 0.0 | 0.00 | 3.90 | 3.90 | 95 | 1003.6 |
| 20260905001521 | 64 | 240 | 0.0 | 0.0 | 0.00 | 3.90 | 3.90 | 95 | 1003.6 |
| 20260905001032 | 64 | 240 | 0.0 | 1.0 | 0.00 | 3.90 | 3.90 | 95 | 1003.5 |
| 20260905000521 | 64 | 240 | 0.0 | 1.0 | 0.00 | 3.90 | 3.90 | 95 | 1003.6 |
| 20260905000020 | 65 | 240 | 0.0 | 2.0 | 0.00 | 3.90 | 3.90 | 95 | 1003.7 |
| 20260904235521 | 65 | 240 | 0.0 | 2.0 | 0.00 | 3.90 | 3.90 | 95 | 1003.7 |
| 20260904235021 | 65 | 225 | 0.0 | 2.0 | 0.00 | 3.90 | 3.90 | 95 | 1003.7 |
| 20260904234531 | 65 | 225 | 0.0 | 1.0 | 0.00 | 3.90 | 3.90 | 95 | 1003.7 |
| 20260904234021 | 65 | 231 | 0.0 | 4.0 | 0.00 | 3.90 | 3.90 | 95 | 1003.7 |
| 20260904233520 | 65 | 23 | 0.0 | 3.0 | 0.00 | 3.90 | 3.90 | 95 | 1003.7 |
| 20260904233020 | 65 | 255 | 0.0 | 3.0 | 0.00 | 3.90 | 3.90 | 95 | 1003.7 |
| 20260904232518 | 65 | 271 | 0.0 | 3.0 | 0.00 | 3.90 | 3.90 | 95 | 1003.7 |
| 20260904231520 | 65 | 296 | 0.0 | 3.0 | 0.00 | 3.90 | 3.90 | 95 | 1003.7 |
| 20260904231029 | 65 | 224 | 1.0 | 2.0 | 0.00 | 3.90 | 3.90 | 95 | 1003.7 |
| 20260904230524 | 65 | 229 | 0.0 | 4.0 | 0.00 | 3.90 | 3.90 | 95 | 1003.6 |
| 20260904230018 | 65 | 327 | 0.0 | 3.0 | 0.00 | 3.90 | 3.90 | 95 | 1003.7 |
| 20260904225519 | 65 | 229 | 1.0 | 3.0 | 0.00 | 3.91 | 3.90 | 95 | 1003.7 |
| 20260904225018 | 65 | 325 | 1.0 | 5.0 | 0.00 | 3.91 | 3.90 | 95 | 1003.6 |
| 20260904224518 | 65 | 306 | 0.0 | 6.0 | 0.00 | 3.91 | 3.90 | 95 | 1003.7 |
| 20260904224018 | 65 | 146 | 1.0 | 6.0 | 0.00 | 3.91 | 3.90 | 95 | 1003.7 |
| 20260904223519 | 65 | 172 | 2.0 | 6.0 | 0.00 | 3.91 | 3.90 | 95 | 1003.7 |
| 20260904223019 | 65 | 212 | 1.0 | 3.0 | 0.00 | 3.91 | 3.90 | 95 | 1003.6 |
| 20260904222529 | 65 | 285 | 1.0 | 4.0 | 0.00 | 3.91 | 3.90 | 95 | 1003.7 |
| 20260904222023 | 65 | 47 | 1.0 | 4.0 | 0.01 | 3.91 | 3.90 | 95 | 1003.7 |
| 20260904221520 | 65 | 273 | 1.0 | 6.0 | 0.01 | 3.91 | 3.90 | 95 | 1003.7 |
| 20260904221019 | 65 | 62 | 2.0 | 6.0 | 0.01 | 3.91 | 3.90 | 95 | 1003.7 |
| 20260904220529 | 65 | 133 | 1.0 | 10.0 | 0.01 | 3.91 | 3.90 | 95 | 1003.8 |
| 20260904220019 | 65 | 137 | 2.0 | 10.0 | 0.01 | 3.91 | 3.90 | 95 | 1003.7 |
| 20260904215519 | 65 | 283 | 1.0 | 4.0 | 0.01 | 3.91 | 3.90 | 95 | 1003.9 |
| 20260904215019 | 66 | 236 | 1.0 | 4.0 | 0.01 | 3.91 | 3.90 | 95 | 1003.9 |
| 20260904214518 | 66 | 279 | 1.0 | 6.0 | 0.01 | 3.91 | 3.90 | 95 | 1004.0 |
| 20260904214029 | 66 | 31 | 1.0 | 6.0 | 0.01 | 3.91 | 3.90 | 95 | 1003.9 |
| 20260904213519 | 66 | 32 | 2.0 | 10.0 | 0.01 | 3.91 | 3.90 | 95 | 1003.9 |
| 20260904213019 | 67 | 15 | 2.0 | 10.0 | 0.01 | 3.91 | 3.90 | 95 | 1004.0 |
| 20260904212519 | 67 | 284 | 3.0 | 8.0 | 0.01 | 3.91 | 3.90 | 95 | 1004.0 |
| 20260904212019 | 67 | 256 | 2.0 | 7.0 | 0.00 | 3.90 | 3.89 | 95 | 1004.0 |
| 20260904211520 | 68 | 162 | 1.0 | 6.0 | 0.00 | 3.90 | 3.89 | 95 | 1004.1 |
| 20260904211019 | 68 | 293 | 1.0 | 6.0 | 0.00 | 3.90 | 3.89 | 95 | 1004.2 |
| 20260904210519 | 68 | 229 | 1.0 | 5.0 | 0.00 | 3.90 | 3.89 | 95 | 1004.2 |
| 20260904210019 | 67 | 250 | 2.0 | 5.0 | 0.00 | 3.90 | 3.89 | 95 | 1004.3 |
| 20260904205520 | 67 | 229 | 2.0 | 5.0 | 0.00 | 3.90 | 3.89 | 95 | 1004.3 |
| 20260904205020 | 68 | 254 | 1.0 | 4.0 | 0.00 | 3.90 | 3.89 | 95 | 1004.4 |
| 20260904204519 | 68 | 209 | 1.0 | 7.0 | 0.00 | 3.90 | 3.89 | 95 | 1004.6 |
| 20260904204019 | 67 | 222 | 2.0 | 7.0 | 0.00 | 3.90 | 3.89 | 95 | 1004.7 |
| 20260904203531 | 67 | 215 | 2.0 | 4.0 | 0.00 | 3.90 | 3.89 | 95 | 1004.7 |
| 20260904203018 | 67 | 98 | 1.0 | 4.0 | 0.02 | 3.90 | 3.89 | 95 | 1004.8 |
| 20260904202519 | 67 | 205 | 2.0 | 7.0 | 0.03 | 3.90 | 3.89 | 95 | 1004.9 |
| 20260904202019 | 67 | 209 | 2.0 | 9.0 | 0.03 | 3.90 | 3.89 | 95 | 1004.9 |
| 20260904201520 | 67 | 233 | 5.0 | 9.0 | 0.03 | 3.90 | 3.89 | 95 | 1004.8 |
| 20260904201019 | 67 | 249 | 4.0 | 8.0 | 0.03 | 3.90 | 3.89 | 95 | 1004.9 |
| 20260904200519 | 67 | 130 | 2.0 | 9.0 | 0.04 | 3.90 | 3.89 | 95 | 1005.0 |
| 20260904200030 | 66 | 232 | 2.0 | 9.0 | 0.04 | 3.90 | 3.89 | 95 | 1005.0 |
| 20260904195518 | 66 | 138 | 2.0 | 9.0 | 0.04 | 3.90 | 3.89 | 95 | 1005.1 |
| 20260904195019 | 66 | 191 | 6.0 | 9.0 | 0.05 | 3.90 | 3.89 | 95 | 1005.2 |
| 20260904194527 | 66 | 262 | 4.0 | 8.0 | 0.05 | 3.90 | 3.89 | 95 | 1005.2 |
| 20260904194027 | 66 | 146 | 4.0 | 9.0 | 0.05 | 3.90 | 3.89 | 95 | 1005.2 |
| 20260904193524 | 66 | 245 | 4.0 | 9.0 | 0.04 | 3.89 | 3.88 | 95 | 1005.3 |
| 20260904193023 | 66 | 178 | 6.0 | 12.0 | 0.03 | 3.88 | 3.87 | 95 | 1005.2 |
| 20260904192524 | 66 | 163 | 6.0 | 12.0 | 0.02 | 3.87 | 3.86 | 95 | 1005.1 |
| 20260904192023 | 66 | 174 | 5.0 | 10.0 | 0.02 | 3.87 | 3.86 | 95 | 1005.1 |
| 20260904191522 | 66 | 222 | 4.0 | 18.0 | 0.02 | 3.87 | 3.86 | 95 | 1005.1 |
| 20260904191021 | 66 | 134 | 8.0 | 18.0 | 0.02 | 3.86 | 3.85 | 95 | 1005.2 |
| 20260904190521 | 66 | 169 | 5.0 | 13.0 | 0.02 | 3.86 | 3.85 | 95 | 1005.3 |
| 20260904190022 | 66 | 139 | 4.0 | 13.0 | 0.02 | 3.86 | 3.85 | 95 | 1005.4 |
| 20260904185532 | 66 | 159 | 7.0 | 15.0 | 0.02 | 3.86 | 3.85 | 95 | 1005.4 |
| 20260904185021 | 66 | 160 | 7.0 | 19.0 | 0.02 | 3.85 | 3.84 | 95 | 1005.5 |
| 20260904184521 | 66 | 129 | 7.0 | 19.0 | 0.02 | 3.85 | 3.84 | 95 | 1005.4 |
| 20260904184021 | 66 | 177 | 7.0 | 16.0 | 0.03 | 3.85 | 3.84 | 95 | 1005.5 |
| 20260904183521 | 66 | 180 | 8.0 | 16.0 | 0.04 | 3.85 | 3.84 | 95 | 1005.4 |
| 20260904183021 | 66 | 169 | 8.0 | 15.0 | 0.04 | 3.85 | 3.84 | 95 | 1005.5 |
| 20260904182521 | 66 | 206 | 6.0 | 13.0 | 0.07 | 3.85 | 3.84 | 95 | 1005.7 |
| 20260904182021 | 66 | 188 | 6.0 | 17.0 | 0.07 | 3.85 | 3.84 | 95 | 1005.8 |
| 20260904181522 | 66 | 151 | 6.0 | 17.0 | 0.08 | 3.85 | 3.84 | 95 | 1005.8 |
| 20260904181021 | 66 | 184 | 7.0 | 17.0 | 0.07 | 3.84 | 3.83 | 95 | 1005.9 |
| 20260904180521 | 66 | 180 | 8.0 | 16.0 | 0.09 | 3.84 | 3.83 | 95 | 1005.9 |
| 20260904180022 | 67 | 219 | 7.0 | 15.0 | 0.10 | 3.84 | 3.83 | 95 | 1006.0 |
| 20260904175521 | 67 | 198 | 6.0 | 13.0 | 0.12 | 3.84 | 3.83 | 95 | 1006.1 |
| 20260904175021 | 67 | 169 | 5.0 | 11.0 | 0.13 | 3.83 | 3.82 | 95 | 1006.1 |
| 20260904174522 | 66 | 223 | 5.0 | 10.0 | 0.14 | 3.83 | 3.82 | 95 | 1006.2 |
| 20260904174021 | 66 | 175 | 5.0 | 10.0 | 0.15 | 3.82 | 3.81 | 95 | 1006.3 |
| 20260904173521 | 66 | 113 | 3.0 | 16.0 | 0.15 | 3.81 | 3.80 | 95 | 1006.3 |
| 20260904173032 | 66 | 137 | 6.0 | 16.0 | 0.16 | 3.81 | 3.80 | 95 | 1006.4 |
| 20260904172521 | 66 | 212 | 6.0 | 12.0 | 0.14 | 3.78 | 3.77 | 95 | 1006.7 |
| 20260904172021 | 66 | 120 | 6.0 | 13.0 | 0.15 | 3.78 | 3.77 | 95 | 1006.9 |
| 20260904171521 | 66 | 146 | 8.0 | 14.0 | 0.15 | 3.77 | 3.76 | 95 | 1007.0 |
| 20260904171032 | 66 | 155 | 8.0 | 19.0 | 0.16 | 3.76 | 3.75 | 95 | 1007.1 |
| 20260904170521 | 66 | 128 | 8.0 | 19.0 | 0.18 | 3.75 | 3.74 | 95 | 1007.1 |
| 20260904170033 | 66 | 146 | 8.0 | 19.0 | 0.19 | 3.73 | 3.72 | 95 | 1007.2 |
| 20260904165532 | 66 | 150 | 10.0 | 19.0 | 0.19 | 3.72 | 3.71 | 95 | 1007.1 |
| 20260904165022 | 66 | 142 | 9.0 | 16.0 | 0.22 | 3.69 | 3.68 | 95 | 1007.1 |
| 20260904164522 | 66 | 177 | 7.0 | 17.0 | 0.23 | 3.68 | 3.67 | 95 | 1007.2 |
| 20260904164021 | 66 | 202 | 6.0 | 19.0 | 0.22 | 3.66 | 3.65 | 95 | 1007.3 |
| 20260904163521 | 66 | 142 | 8.0 | 19.0 | 0.24 | 3.66 | 3.65 | 95 | 1007.1 |
| 20260904163021 | 66 | 146 | 6.0 | 17.0 | 0.25 | 3.65 | 3.64 | 95 | 1007.2 |
| 20260904162532 | 65 | 128 | 9.0 | 20.0 | 0.32 | 3.64 | 3.63 | 95 | 1007.2 |
| 20260904162021 | 66 | 150 | 11.0 | 20.0 | 0.40 | 3.63 | 3.62 | 95 | 1007.4 |
| 20260904161521 | 66 | 140 | 8.0 | 17.0 | 0.47 | 3.61 | 3.60 | 95 | 1007.4 |
| 20260904161026 | 66 | 134 | 10.0 | 26.0 | 0.58 | 3.60 | 3.59 | 95 | 1007.4 |
| 20260904160522 | 66 | 105 | 9.0 | 20.0 | 0.72 | 3.57 | 3.56 | 95 | 1007.3 |
| 20260904160022 | 66 | 144 | 11.0 | 20.0 | 0.77 | 3.54 | 3.53 | 95 | 1007.2 |
| 20260904155522 | 66 | 147 | 11.0 | 22.0 | 0.79 | 3.52 | 3.51 | 95 | 1007.4 |
| 20260904155022 | 66 | 133 | 11.0 | 22.0 | 0.81 | 3.46 | 3.45 | 95 | 1007.4 |
| 20260904154521 | 66 | 181 | 7.0 | 18.0 | 0.89 | 3.45 | 3.44 | 95 | 1007.5 |
| 20260904154019 | 66 | 144 | 8.0 | 18.0 | 0.95 | 3.43 | 3.42 | 95 | 1007.7 |
| 20260904153530 | 65 | 134 | 7.0 | 16.0 | 1.13 | 3.42 | 3.41 | 95 | 1007.9 |
| 20260904153019 | 65 | 120 | 8.0 | 16.0 | 1.24 | 3.40 | 3.39 | 95 | 1007.9 |
| 20260904152519 | 65 | 190 | 8.0 | 20.0 | 1.28 | 3.30 | 3.29 | 95 | 1008.2 |
| 20260904152030 | 65 | 143 | 12.0 | 20.0 | 1.30 | 3.21 | 3.20 | 95 | 1008.2 |
| 20260904151520 | 65 | 90 | 10.0 | 18.0 | 1.26 | 3.12 | 3.11 | 95 | 1008.5 |
| 20260904151019 | 65 | 127 | 9.0 | 18.0 | 1.17 | 3.01 | 3.00 | 94 | 1008.6 |
| 20260904150519 | 65 | 120 | 9.0 | 20.0 | 1.01 | 2.84 | 2.83 | 94 | 1008.6 |
| 20260904150031 | 65 | 124 | 11.0 | 20.0 | 0.96 | 2.77 | 2.76 | 94 | 1008.6 |
| 20260904145520 | 65 | 110 | 9.0 | 18.0 | 0.91 | 2.72 | 2.71 | 94 | 1008.6 |
| 20260904145020 | 65 | 110 | 9.0 | 18.0 | 0.84 | 2.64 | 2.63 | 94 | 1008.9 |
| 20260904144519 | 65 | 113 | 10.0 | 17.0 | 0.76 | 2.55 | 2.54 | 94 | 1009.0 |
| 20260904144020 | 65 | 96 | 9.0 | 15.0 | 0.68 | 2.47 | 2.46 | 94 | 1008.9 |
| 20260904143531 | 65 | 181 | 8.0 | 16.0 | 0.49 | 2.28 | 2.27 | 94 | 1009.1 |
| 20260904143020 | 65 | 150 | 9.0 | 20.0 | 0.36 | 2.14 | 2.13 | 94 | 1009.1 |
| 20260904142520 | 65 | 117 | 7.0 | 18.0 | 0.22 | 2.00 | 1.99 | 94 | 1009.4 |
| 20260904142020 | 65 | 135 | 7.0 | 17.0 | 0.12 | 1.90 | 1.89 | 94 | 1009.4 |
| 20260904141509 | 65 | 174 | 8.0 | 17.0 | 0.08 | 1.85 | 1.84 | 94 | 1009.5 |
| 20260904141016 | 65 | 143 | 9.0 | 17.0 | 0.11 | 1.84 | 1.83 | 94 | 1009.3 |